Total_Precipitation_Accumulation
2.71 2.90 2.87 2.70 2.71 2.86 3.05 3.25 3.29 3.08 2.99 2.87 2.54 2.41 2.40 2.37 2.46 2.33 2.43 2.36 1.92 1.66 1.60 1.60 1.58 1.57 1.64 1.80 2.04 2.35 2.57 2.67 2.82 3.04 3.38 3.75 4.12 4.47
2.97 3.02 2.89 2.64 2.79 2.84 2.96 3.24 3.50 3.54 3.26 2.85 2.61 2.50 2.50 2.24 2.24 2.05 2.11 2.03 1.72 1.56 1.46 1.42 1.36 1.32 1.31 1.38 1.51 1.78 1.99 2.16 2.34 2.46 2.62 2.83 3.11 3.38
2.89 2.81 2.72 2.75 2.91 2.85 2.99 3.15 3.38 3.61 3.32 2.96 2.80 2.75 2.75 2.57 2.39 2.09 1.85 1.73 1.61 1.67 1.51 1.35 1.28 1.25 1.29 1.36 1.42 1.53 1.70 1.90 2.08 2.22 2.38 2.56 2.68 2.79
2.80 2.77 2.67 2.80 2.90 2.88 2.96 2.95 3.02 3.31 3.20 2.98 2.92 2.94 2.84 2.63 2.50 2.31 1.94 1.76 1.77 1.86 1.68 1.49 1.38 1.34 1.31 1.30 1.39 1.48 1.59 1.73 1.87 1.96 2.01 2.06 2.21 2.45
2.75 2.67 2.57 2.67 2.63 2.69 2.72 2.72 2.71 2.80 2.99 2.90 2.81 2.88 2.80 2.62 2.54 2.36 2.24 2.32 2.09 1.92 1.77 1.60 1.49 1.42 1.40 1.32 1.34 1.44 1.55 1.60 1.61 1.74 1.87 1.96 2.01 2.07
2.44 2.37 2.39 2.53 2.64 2.63 2.54 2.52 2.58 2.71 2.80 2.83 2.81 2.89 2.91 2.91 2.79 2.62 2.61 2.54 2.35 1.90 1.82 1.62 1.49 1.38 1.31 1.22 1.24 1.40 1.55 1.62 1.65 1.62 1.69 1.79 1.88 1.97
2.23 2.07 2.11 2.43 2.59 2.55 2.35 2.45 2.52 2.58 2.65 2.77 2.83 2.93 3.01 3.20 3.00 2.69 2.56 2.60 2.45 2.21 2.04 1.81 1.65 1.53 1.47 1.41 1.35 1.36 1.40 1.51 1.62 1.73 1.85 1.94 1.99 2.03
1.99 1.93 1.93 2.01 2.05 2.09 2.08 2.09 2.16 2.23 2.44 2.73 2.82 2.82 2.79 2.88 2.96 2.85 2.74 2.68 2.62 2.51 2.53 2.42 2.07 1.98 1.86 1.70 1.58 1.34 1.20 1.26 1.41 1.53 1.78 2.03 2.26 2.33
1.95 2.02 1.75 1.58 1.71 1.74 1.87 1.86 1.79 1.88 2.03 2.29 2.48 2.48 2.58 2.58 2.84 2.86 2.92 2.96 2.90 2.84 2.83 2.88 2.53 2.20 1.94 1.83 1.74 1.39 1.23 1.18 1.24 1.34 1.47 1.69 1.99 2.30
1.84 1.86 1.82 1.69 1.65 1.76 1.84 1.77 1.62 1.59 1.59 1.57 1.79 2.07 2.31 2.55 2.61 2.67 2.79 2.88 2.90 2.73 2.65 2.72 2.55 2.41 2.08 1.78 1.64 1.44 1.26 1.13 1.10 1.17 1.20 1.27 1.43 1.68
1.80 1.75 1.71 1.63 1.68 1.56 1.51 1.53 1.52 1.52 1.38 1.37 1.45 1.67 1.86 1.93 2.15 2.41 2.63 2.63 2.58 2.40 2.21 2.29 2.34 2.36 2.34 2.09 1.68 1.54 1.32 1.14 1.09 1.11 1.09 1.10 1.17 1.28
1.79 1.74 1.62 1.47 1.46 1.32 1.30 1.45 1.45 1.45 1.48 1.40 1.30 1.34 1.43 1.58 1.68 1.76 2.07 2.30 2.22 2.17 1.94 1.85 1.83 1.96 2.14 1.94 1.66 1.56 1.50 1.35 1.18 1.15 1.13 1.09 1.14 1.09
1.79 1.73 1.66 1.53 1.33 1.28 1.22 1.27 1.35 1.34 1.40 1.44 1.40 1.37 1.46 1.59 1.55 1.53 1.69 1.91 1.99 1.83 1.68 1.77 1.68 1.62 1.64 1.59 1.47 1.35 1.38 1.49 1.45 1.32 1.25 1.24 1.25 1.24
1.92 1.89 1.79 1.57 1.31 1.23 1.15 1.14 1.13 1.05 1.08 1.26 1.31 1.28 1.33 1.46 1.54 1.52 1.58 1.65 1.73 1.65 1.65 1.74 1.78 1.73 1.63 1.49 1.35 1.21 1.19 1.30 1.46 1.66 1.75 1.75 1.60 1.54
1.91 1.97 1.71 1.46 1.29 1.14 1.14 1.14 1.02 0.92 1.03 1.13 1.14 1.15 1.18 1.31 1.53 1.69 1.75 1.77 1.73 1.56 1.41 1.46 1.56 1.72 1.74 1.52 1.30 1.20 1.21 1.27 1.39 1.60 1.75 1.86 1.90 1.89
1.72 1.80 1.65 1.47 1.32 1.18 1.13 1.09 1.03 1.07 1.16 1.17 1.20 1.25 1.28 1.36 1.47 1.55 1.66 1.74 1.73 1.52 1.40 1.37 1.45 1.63 1.67 1.50 1.38 1.28 1.29 1.36 1.38 1.57 1.83 1.95 1.97 2.00
1.77 1.76 1.71 1.56 1.43 1.32 1.29 1.33 1.37 1.36 1.30 1.30 1.35 1.36 1.35 1.35 1.41 1.48 1.56 1.64 1.60 1.40 1.27 1.35 1.45 1.64 1.66 1.62 1.53 1.34 1.31 1.29 1.29 1.49 1.79 1.91 1.94 1.97
1.66 1.60 1.69 1.67 1.58 1.50 1.46 1.47 1.47 1.43 1.39 1.40 1.38 1.37 1.35 1.34 1.38 1.42 1.45 1.46 1.43 1.35 1.28 1.26 1.44 1.71 1.82 1.61 1.31 1.23 1.21 1.16 1.22 1.45 1.62 1.68 1.59 1.57
1.44 1.45 1.56 1.61 1.56 1.52 1.47 1.44 1.40 1.45 1.49 1.43 1.37 1.39 1.39 1.37 1.40 1.44 1.44 1.46 1.42 1.39 1.36 1.41 1.49 1.59 1.64 1.45 1.19 1.01 1.12 1.18 1.28 1.38 1.49 1.50 1.41 1.40
1.26 1.31 1.38 1.45 1.47 1.49 1.50 1.50 1.45 1.46 1.48 1.47 1.43 1.43 1.44 1.39 1.39 1.39 1.35 1.37 1.46 1.49 1.51 1.45 1.42 1.41 1.41 1.43 1.37 1.21 1.08 1.26 1.40 1.38 1.36 1.42 1.39 1.36
1.14 1.19 1.23 1.26 1.31 1.38 1.39 1.44 1.44 1.42 1.42 1.45 1.40 1.40 1.44 1.44 1.44 1.42 1.42 1.45 1.46 1.50 1.48 1.34 1.31 1.48 1.63 1.75 1.60 1.38 1.35 1.36 1.45 1.49 1.50 1.55 1.51 1.46
1.14 1.18 1.14 1.15 1.20 1.27 1.33 1.40 1.43 1.44 1.47 1.46 1.44 1.44 1.43 1.45 1.44 1.45 1.48 1.51 1.52 1.52 1.51 1.55 1.65 1.75 1.80 1.75 1.60 1.56 1.65 1.66 1.65 1.62 1.52 1.49 1.42 1.31
1.10 1.09 1.07 1.08 1.12 1.20 1.26 1.32 1.39 1.46 1.45 1.45 1.49 1.47 1.41 1.41 1.41 1.45 1.44 1.46 1.51 1.61 1.72 1.74 1.72 1.69 1.68 1.72 1.71 1.66 1.63 1.72 1.80 1.75 1.58 1.46 1.32 1.17